• In Deutschland
  • Länderverzeichnis
  • Für 7 Tage
  • Wassertemperatur
  • Satellitenkarten
  • Wetterkarte
  • Widgets
  • user-avatar
    Anmelden

    Stündliche Wetter Prutz

    Heute, 27 Juni, Dienstag

    Zeit Temperatur Niederschläge Wind Luftdruck Luftfeuchtigkeit
    00:00 +14°C° 1,2 mm 1 m/S 633 mmHg 95%
    01:00 +13°C° 0 mm 1 m/S 633 mmHg 96%
    02:00 +13°C° 0,7 mm 1 m/S 633 mmHg 96%
    03:00 +13°C° 0,7 mm 1 m/S 633 mmHg 96%
    04:00 +12°C° 0,7 mm 1 m/S 633 mmHg 96%
    05:00 +13°C° 0,3 mm 1 m/S 633 mmHg 94%
    06:00 +14°C° 0,3 mm 1 m/S 633 mmHg 92%
    07:00 +15°C° 0,3 mm 1 m/S 633 mmHg 91%
    08:00 +16°C° 0,2 mm 1 m/S 633 mmHg 82%
    09:00 +19°C° 0,2 mm 1 m/S 634 mmHg 73%
    10:00 +21°C° 0,2 mm 1 m/S 634 mmHg 65%
    11:00 +21°C° 1 mm 1 m/S 634 mmHg 66%
    12:00 +21°C° 1 mm 1 m/S 634 mmHg 68%
    13:00 +19°C° 0 mm 2 m/S 633 mmHg 69%
    14:00 +19°C° 0,5 mm 2 m/S 633 mmHg 69%
    15:00 +21°C° 0,5 mm 1 m/S 633 mmHg 68%
    16:00 +21°C° 0,5 mm 1 m/S 633 mmHg 68%
    17:00 +20°C° 0,4 mm 1 m/S 632 mmHg 74%
    18:00 +19°C° 0,4 mm 1 m/S 632 mmHg 79%
    19:00 +19°C° 0,4 mm 1 m/S 631 mmHg 84%
    20:00 +16°C° 0,1 mm 1 m/S 631 mmHg 88%
    21:00 +14°C° 0,1 mm 1 m/S 630 mmHg 91%
    22:00 +13°C° 0,1 mm 2 m/S 630 mmHg 94%
    23:00 +13°C° 0 mm 2 m/S 629 mmHg 94%

    Morgen, 28 Juni, Mittwoch

    Zeit Temperatur Niederschläge Wind Luftdruck Luftfeuchtigkeit
    00:00 +13°C° 0 mm 2 m/S 629 mmHg 94%
    01:00 +13°C° 0 mm 2 m/S 629 mmHg 93%
    02:00 +12°C° 0 mm 2 m/S 628 mmHg 93%
    03:00 +12°C° 0 mm 2 m/S 628 mmHg 93%
    04:00 +12°C° 0 mm 2 m/S 628 mmHg 93%
    05:00 +13°C° 0,2 mm 2 m/S 628 mmHg 91%
    06:00 +14°C° 0,2 mm 2 m/S 628 mmHg 89%
    07:00 +15°C° 0,2 mm 2 m/S 628 mmHg 87%
    08:00 +15°C° 0,7 mm 2 m/S 628 mmHg 85%
    09:00 +16°C° 0,7 mm 2 m/S 629 mmHg 84%
    10:00 +16°C° 0,7 mm 2 m/S 629 mmHg 83%
    11:00 +17°C° 0,8 mm 2 m/S 629 mmHg 80%
    12:00 +17°C° 0,8 mm 2 m/S 629 mmHg 77%
    13:00 +18°C° 0,8 mm 2 m/S 628 mmHg 73%
    14:00 +18°C° 1,2 mm 2 m/S 628 mmHg 74%
    15:00 +18°C° 1,2 mm 2 m/S 628 mmHg 74%
    16:00 +18°C° 1,2 mm 2 m/S 627 mmHg 74%
    17:00 +16°C° 1,5 mm 1 m/S 626 mmHg 81%
    18:00 +15°C° 1,5 mm 1 m/S 626 mmHg 87%
    19:00 +14°C° 1,5 mm 1 m/S 625 mmHg 94%
    20:00 +13°C° 1,3 mm 1 m/S 624 mmHg 95%
    21:00 +12°C° 1,3 mm 1 m/S 624 mmHg 96%
    22:00 +11°C° 1,3 mm 1 m/S 624 mmHg 97%
    23:00 +10°C° 0,6 mm 1 m/S 623 mmHg 97%

    übermorgen, 29 Juni, Donnerstag

    Zeit Temperatur Niederschläge Wind Luftdruck Luftfeuchtigkeit
    00:00 +10°C° 0,6 mm 1 m/S 623 mmHg 97%
    01:00 +10°C° 0,6 mm 1 m/S 623 mmHg 97%
    02:00 +10°C° 0,6 mm 1 m/S 623 mmHg 97%
    03:00 +10°C° 0,6 mm 1 m/S 623 mmHg 97%
    04:00 +9°C° 0,6 mm 1 m/S 623 mmHg 98%
    05:00 +10°C° 0,8 mm 1 m/S 623 mmHg 97%
    06:00 +10°C° 0,8 mm 1 m/S 624 mmHg 96%
    07:00 +11°C° 0,8 mm 1 m/S 624 mmHg 95%
    08:00 +11°C° 1,2 mm 1 m/S 624 mmHg 94%
    09:00 +11°C° 1,2 mm 1 m/S 625 mmHg 93%
    10:00 +12°C° 1,2 mm 1 m/S 625 mmHg 92%
    11:00 +13°C° 0,9 mm 1 m/S 625 mmHg 87%
    12:00 +14°C° 0,9 mm 1 m/S 626 mmHg 81%
    13:00 +14°C° 0,9 mm 1 m/S 626 mmHg 76%
    14:00 +14°C° 1 mm 1 m/S 626 mmHg 78%
    15:00 +14°C° 1 mm 1 m/S 626 mmHg 80%
    16:00 +14°C° 1 mm 1 m/S 626 mmHg 82%
    17:00 +13°C° 1,7 mm 1 m/S 626 mmHg 86%
    18:00 +11°C° 1,7 mm 1 m/S 626 mmHg 91%
    19:00 +10°C° 1,7 mm 1 m/S 626 mmHg 95%
    20:00 +10°C° 1,5 mm 1 m/S 626 mmHg 96%
    21:00 +9°C° 1,5 mm 1 m/S 627 mmHg 96%
    22:00 +8°C° 1,5 mm 1 m/S 627 mmHg 97%
    23:00 +8°C° 1,1 mm 1 m/S 627 mmHg 96%

    30 Juni, Freitag

    Zeit Temperatur Niederschläge Wind Luftdruck Luftfeuchtigkeit
    00:00 +8°C° 1,1 mm 1 m/S 627 mmHg 96%
    01:00 +8°C° 1,1 mm 1 m/S 627 mmHg 96%
    02:00 +7°C° 1,2 mm 1 m/S 627 mmHg 96%
    03:00 +7°C° 1,2 mm 1 m/S 627 mmHg 96%
    04:00 +7°C° 1,2 mm 1 m/S 627 mmHg 95%
    05:00 +7°C° 0,4 mm 1 m/S 627 mmHg 95%
    06:00 +8°C° 0,4 mm 1 m/S 628 mmHg 94%
    07:00 +9°C° 0,4 mm 1 m/S 628 mmHg 93%
    08:00 +10°C° 0,2 mm 1 m/S 629 mmHg 87%
    09:00 +11°C° 0,2 mm 1 m/S 630 mmHg 81%
    10:00 +13°C° 0,2 mm 1 m/S 630 mmHg 75%
    11:00 +13°C° 0,5 mm 2 m/S 631 mmHg 74%
    12:00 +14°C° 0,5 mm 2 m/S 631 mmHg 73%
    13:00 +14°C° 0,5 mm 2 m/S 631 mmHg 72%
    14:00 +14°C° 1,1 mm 2 m/S 631 mmHg 73%
    15:00 +14°C° 1,1 mm 2 m/S 631 mmHg 75%
    16:00 +13°C° 1,1 mm 2 m/S 631 mmHg 77%
    17:00 +12°C° 1,2 mm 1 m/S 631 mmHg 81%
    18:00 +11°C° 1,2 mm 1 m/S 630 mmHg 85%
    19:00 +10°C° 1,2 mm 1 m/S 630 mmHg 90%
    20:00 +9°C° 0,6 mm 1 m/S 630 mmHg 91%
    21:00 +8°C° 0,6 mm 1 m/S 630 mmHg 93%
    22:00 +7°C° 0,6 mm 1 m/S 630 mmHg 94%
    23:00 +7°C° 0,1 mm 1 m/S 630 mmHg 94%

    1 Juli, Samstag

    Zeit Temperatur Niederschläge Wind Luftdruck Luftfeuchtigkeit
    00:00 +6°C° 0,1 mm 1 m/S 630 mmHg 94%
    01:00 +6°C° 0,1 mm 1 m/S 630 mmHg 93%
    02:00 +6°C° 0,1 mm 1 m/S 630 mmHg 93%
    03:00 +6°C° 0,1 mm 1 m/S 629 mmHg 93%
    04:00 +6°C° 0,1 mm 1 m/S 629 mmHg 92%
    05:00 +7°C° 0 mm 1 m/S 630 mmHg 89%
    06:00 +8°C° 0 mm 0 m/S 631 mmHg 85%
    07:00 +9°C° 0 mm 0 m/S 631 mmHg 82%
    08:00 +12°C° 0 mm 1 m/S 632 mmHg 72%
    09:00 +14°C° 0 mm 1 m/S 633 mmHg 63%
    10:00 +16°C° 0 mm 1 m/S 634 mmHg 54%
    11:00 +16°C° 0,5 mm 1 m/S 634 mmHg 59%
    12:00 +15°C° 0,5 mm 1 m/S 633 mmHg 64%
    13:00 +15°C° 0,5 mm 1 m/S 633 mmHg 69%
    14:00 +15°C° 1,2 mm 1 m/S 633 mmHg 72%
    15:00 +14°C° 1,2 mm 1 m/S 633 mmHg 75%
    16:00 +14°C° 1,2 mm 1 m/S 633 mmHg 78%
    17:00 +13°C° 1,1 mm 1 m/S 633 mmHg 83%
    18:00 +12°C° 1,1 mm 1 m/S 633 mmHg 88%
    19:00 +11°C° 1,1 mm 1 m/S 633 mmHg 93%
    20:00 +10°C° 0,4 mm 1 m/S 633 mmHg 94%
    21:00 +9°C° 0,4 mm 1 m/S 633 mmHg 96%
    22:00 +8°C° 0,4 mm 1 m/S 633 mmHg 97%
    23:00 +8°C° 0 mm 1 m/S 633 mmHg 97%

    2 Juli, Sonntag

    Zeit Temperatur Niederschläge Wind Luftdruck Luftfeuchtigkeit
    00:00 +7°C° 0 mm 1 m/S 633 mmHg 97%
    01:00 +7°C° 0 mm 1 m/S 633 mmHg 97%
    02:00 +7°C° 0,2 mm 1 m/S 633 mmHg 97%
    03:00 +7°C° 0,2 mm 1 m/S 633 mmHg 97%
    04:00 +7°C° 0,2 mm 1 m/S 633 mmHg 97%
    05:00 +7°C° 0,7 mm 1 m/S 633 mmHg 97%
    06:00 +8°C° 0,7 mm 1 m/S 634 mmHg 96%
    07:00 +9°C° 0,7 mm 1 m/S 634 mmHg 95%
    08:00 +10°C° 0,2 mm 1 m/S 635 mmHg 91%
    09:00 +11°C° 0,2 mm 1 m/S 635 mmHg 87%
    10:00 +11°C° 0,2 mm 1 m/S 636 mmHg 83%
    11:00 +13°C° 0,1 mm 2 m/S 636 mmHg 77%
    12:00 +14°C° 0,1 mm 2 m/S 636 mmHg 71%
    13:00 +15°C° 0,1 mm 2 m/S 636 mmHg 64%
    14:00 +15°C° 0,1 mm 2 m/S 636 mmHg 63%
    15:00 +15°C° 0,1 mm 2 m/S 636 mmHg 62%
    16:00 +16°C° 0,1 mm 2 m/S 636 mmHg 61%
    17:00 +15°C° 0 mm 2 m/S 636 mmHg 67%
    18:00 +14°C° 0 mm 2 m/S 636 mmHg 74%
    19:00 +13°C° 0 mm 2 m/S 636 mmHg 80%
    20:00 +12°C° 0,2 mm 1 m/S 636 mmHg 85%
    21:00 +11°C° 0,2 mm 1 m/S 636 mmHg 90%
    22:00 +10°C° 0,2 mm 1 m/S 636 mmHg 95%
    23:00 +10°C° 0,4 mm 1 m/S 636 mmHg 95%
    Mehr zeigen